This demonstration page uses our WeatherBlox Daily Observations layout. Learn more.

Left ArrowRight Arrow

38.88101, -77.10428

Hourly Observations for December 3, 2022

Temp ( °F °C ) Dew Point ( °F °C ) Humidity (%) Winds ( mph kmh ) Pressure ( in mb ) Visibility ( mi km ) Precip ( " mm )
12:52 am 00:52 Cloudy 50 10 36 2.2 58 58 SW 14 22 30.35 1028 10 16 0.00 0.00
1:52 am 01:52 Cloudy 50 10 38 3.3 63 63 SSW 10 17 30.32 1027 10 16 0.00 0.00
2:24 am 02:24 Cloudy 49 9.4 40 4.4 71 71 S 12 19 30.30 1026 10 16 0.01 0.13
2:52 am 02:52 Cloudy with Light Rain 49 9.4 41 5 74 74 S 9 15 30.29 1026 10 16 0.01 0.13
3:52 am 03:52 Cloudy 49 9.4 43 6.1 80 80 SW 7 11 30.25 1025 10 16 0.01 0.25
4:39 am 04:39 Cloudy 50 10 45 7.2 83 83 S 12 19 30.24 1024 10 16 0.00 0.00
4:52 am 04:52 Cloudy 50 10 46 7.8 86 86 S 12 19 30.23 1024 10 16 0.00 0.00
5:07 am 05:07 Cloudy with Light Rain 52 11.1 47 8.3 83 83 S 12 19 30.22 1023 10 16 0.01 0.13
5:52 am 05:52 Cloudy 53 11.7 48 8.9 83 83 S 14 22 30.20 1023 10 16 0.01 0.13
6:52 am 06:52 Cloudy with Light Rain 54 12.2 49 9.4 83 83 SW 9 15 30.25 1024 10 16 0.02 0.51
7:52 am 07:52 Cloudy with Light Rain 51 10.6 49 9.4 92 92 S 14 22 30.20 1023 10 16 0.08 2.03
8:49 am 08:49 Cloudy with Rain 52 11 50 10 94 94 S 12 19 30.20 1023 3 5 0.11 2.79
8:52 am 08:52 Cloudy with Light Rain 51 10.6 50 10 96 96 S 12 19 30.19 1023 4 6 0.12 3.05
9:12 am 09:12 Cloudy with Light Rain 53 11.7 51 10.6 93 93 S 12 19 30.19 1022 6 10 0.01 0.25
9:31 am 09:31 Cloudy with Nearby Thunderstorms 53 11.7 51 10.6 93 93 SSW 14 22 30.18 1022 5 8 0.04 1.02
9:52 am 09:52 Cloudy with Light Rain 53 11.7 51 10.6 93 93 S 18 30 30.18 1022 8 13 0.05 1.27
10:52 am 10:52 Cloudy 54 12.2 52 11.1 93 93 SSW 17 28 30.14 1021 10 16 0.03 0.76
11:20 am 11:20 Mostly Cloudy 55 12.8 52 11.1 89 89 SSW 21 33 30.13 1020 10 16 0.00 0.00
11:52 am 11:52 Cloudy 57 13.9 53 11.7 87 87 SSW 18 30 30.10 1019 10 16 0.00 0.00
12:26 pm 12:26 Cloudy 58 14.4 54 12.2 87 87 SSW 16 26 30.08 1019 10 16 0.00 0.00
12:52 pm 12:52 Mostly Cloudy 60 15.6 54 12.2 80 80 SSW 17 28 30.07 1018 10 16 0.00 0.00
1:52 pm 13:52 Mostly Cloudy 62 16.7 54 12.2 75 75 SSW 16 26 30.04 1017 10 16 0.00 0.00
2:52 pm 14:52 Mostly Cloudy 61 16.1 53 11.7 75 75 SSW 17 28 30.04 1017 10 16 0.00 0.00
3:52 pm 15:52 Mostly Cloudy 61 16.1 53 11.7 75 75 SSW 14 22 30.04 1017 10 16 0.00 0.00
4:52 pm 16:52 Mostly Cloudy 60 15.6 53 11.7 78 78 SSW 13 20 30.06 1018 10 16 0.00 0.00
5:52 pm 17:52 Cloudy with Light Rain 61 16.1 53 11.7 75 75 W 6 9 30.10 1019 10 16 0.01 0.13
6:52 pm 18:52 Mostly Cloudy 60 15.6 51 10.6 72 72 WNW 7 11 30.13 1020 10 16 0.01 0.13
7:52 pm 19:52 Partly Cloudy 58 14.4 30 -1.1 34 34 NW 21 33 30.16 1021 10 16 0.00 0.00
8:52 pm 20:52 Partly Cloudy 55 12.8 31 -0.6 40 40 NNW 16 26 30.20 1023 10 16 0.00 0.00
9:52 pm 21:52 Partly Cloudy 51 10.6 36 2.2 56 56 N 13 20 30.24 1024 10 16 0.00 0.00
10:52 pm 22:52 Partly Cloudy 49 9.4 35 1.7 59 59 NNW 14 22 30.25 1025 10 16 0.00 0.00
11:52 pm 23:52 Partly Cloudy 45 7.2 33 0.6 63 63 NNW 7 11 30.25 1025 10 16 0.00 0.00

Powered by AerisWeather